Data supplied by UK-AIR on 12/7/2013
All Data GMT hour ending 
Status: R =Ratified P=Provisional,P*=As supplied
,,Mace Head,,,,,,,,,,,,,,,,,,,,,,,
Date,time,"Ozone",status,unit
 
01-01-2012,01:00,,,
01-01-2012,02:00,82,R,ugm-3
01-01-2012,03:00,78,R,ugm-3
01-01-2012,04:00,74,R,ugm-3
01-01-2012,05:00,72,R,ugm-3
01-01-2012,06:00,70,R,ugm-3
01-01-2012,07:00,68,R,ugm-3
01-01-2012,08:00,68,R,ugm-3
01-01-2012,09:00,70,R,ugm-3
01-01-2012,10:00,70,R,ugm-3
01-01-2012,11:00,70,R,ugm-3
01-01-2012,12:00,72,R,ugm-3
01-01-2012,13:00,78,R,ugm-3
01-01-2012,14:00,78,R,ugm-3
01-01-2012,15:00,76,R,ugm-3
01-01-2012,16:00,78,R,ugm-3
01-01-2012,17:00,80,R,ugm-3
01-01-2012,18:00,80,R,ugm-3
01-01-2012,19:00,80,R,ugm-3
01-01-2012,20:00,80,R,ugm-3
01-01-2012,21:00,80,R,ugm-3
01-01-2012,22:00,80,R,ugm-3
01-01-2012,23:00,80,R,ugm-3
01-01-2012,24:00,80,R,ugm-3
02-01-2012,01:00,80,R,ugm-3
02-01-2012,02:00,76,R,ugm-3
02-01-2012,03:00,78,R,ugm-3
02-01-2012,04:00,78,R,ugm-3
02-01-2012,05:00,78,R,ugm-3
02-01-2012,06:00,78,R,ugm-3
02-01-2012,07:00,78,R,ugm-3
02-01-2012,08:00,78,R,ugm-3
02-01-2012,09:00,78,R,ugm-3
02-01-2012,10:00,78,R,ugm-3
02-01-2012,11:00,76,R,ugm-3
02-01-2012,12:00,76,R,ugm-3
02-01-2012,13:00,76,R,ugm-3
02-01-2012,14:00,76,R,ugm-3
02-01-2012,15:00,76,R,ugm-3
02-01-2012,16:00,76,R,ugm-3
02-01-2012,17:00,78,R,ugm-3
02-01-2012,18:00,80,R,ugm-3
02-01-2012,19:00,82,R,ugm-3
02-01-2012,20:00,80,R,ugm-3
02-01-2012,21:00,78,R,ugm-3
02-01-2012,22:00,76,R,ugm-3
02-01-2012,23:00,74,R,ugm-3
02-01-2012,24:00,74,R,ugm-3
03-01-2012,01:00,74,R,ugm-3
03-01-2012,02:00,74,R,ugm-3
03-01-2012,03:00,76,R,ugm-3
03-01-2012,04:00,80,R,ugm-3
03-01-2012,05:00,82,R,ugm-3
03-01-2012,06:00,82,R,ugm-3
03-01-2012,07:00,80,R,ugm-3
03-01-2012,08:00,78,R,ugm-3
03-01-2012,09:00,78,R,ugm-3
03-01-2012,10:00,78,R,ugm-3
03-01-2012,11:00,82,R,ugm-3
03-01-2012,12:00,84,R,ugm-3
03-01-2012,13:00,80,R,ugm-3
03-01-2012,14:00,80,R,ugm-3
03-01-2012,15:00,78,R,ugm-3
03-01-2012,16:00,,,
03-01-2012,17:00,84,R,ugm-3
03-01-2012,18:00,86,R,ugm-3
03-01-2012,19:00,86,R,ugm-3
03-01-2012,20:00,86,R,ugm-3
03-01-2012,21:00,84,R,ugm-3
03-01-2012,22:00,78,R,ugm-3
03-01-2012,23:00,74,R,ugm-3
03-01-2012,24:00,72,R,ugm-3
04-01-2012,01:00,74,R,ugm-3
04-01-2012,02:00,80,R,ugm-3
04-01-2012,03:00,84,R,ugm-3
04-01-2012,04:00,82,R,ugm-3
04-01-2012,05:00,80,R,ugm-3
04-01-2012,06:00,80,R,ugm-3
04-01-2012,07:00,82,R,ugm-3
04-01-2012,08:00,80,R,ugm-3
04-01-2012,09:00,80,R,ugm-3
04-01-2012,10:00,80,R,ugm-3
04-01-2012,11:00,82,R,ugm-3
04-01-2012,12:00,82,R,ugm-3
04-01-2012,13:00,78,R,ugm-3
04-01-2012,14:00,78,R,ugm-3
04-01-2012,15:00,78,R,ugm-3
04-01-2012,16:00,80,R,ugm-3
04-01-2012,17:00,80,R,ugm-3
04-01-2012,18:00,80,R,ugm-3
04-01-2012,19:00,80,R,ugm-3
04-01-2012,20:00,80,R,ugm-3
04-01-2012,21:00,80,R,ugm-3
04-01-2012,22:00,80,R,ugm-3
04-01-2012,23:00,80,R,ugm-3
04-01-2012,24:00,80,R,ugm-3
05-01-2012,01:00,78,R,ugm-3
05-01-2012,02:00,80,R,ugm-3
05-01-2012,03:00,80,R,ugm-3
05-01-2012,04:00,82,R,ugm-3
05-01-2012,05:00,82,R,ugm-3
05-01-2012,06:00,74,R,ugm-3
05-01-2012,07:00,66,R,ugm-3
05-01-2012,08:00,60,R,ugm-3
05-01-2012,09:00,68,R,ugm-3
05-01-2012,10:00,70,R,ugm-3
05-01-2012,11:00,74,R,ugm-3
05-01-2012,12:00,76,R,ugm-3
05-01-2012,13:00,74,R,ugm-3
05-01-2012,14:00,70,R,ugm-3
05-01-2012,15:00,72,R,ugm-3
05-01-2012,16:00,70,R,ugm-3
05-01-2012,17:00,74,R,ugm-3
05-01-2012,18:00,72,R,ugm-3
05-01-2012,19:00,74,R,ugm-3
05-01-2012,20:00,74,R,ugm-3
05-01-2012,21:00,74,R,ugm-3
05-01-2012,22:00,74,R,ugm-3
05-01-2012,23:00,76,R,ugm-3
05-01-2012,24:00,76,R,ugm-3
06-01-2012,01:00,72,R,ugm-3
06-01-2012,02:00,70,R,ugm-3
06-01-2012,03:00,68,R,ugm-3
06-01-2012,04:00,66,R,ugm-3
06-01-2012,05:00,60,R,ugm-3
06-01-2012,06:00,56,R,ugm-3
06-01-2012,07:00,72,R,ugm-3
06-01-2012,08:00,78,R,ugm-3
06-01-2012,09:00,80,R,ugm-3
06-01-2012,10:00,80,R,ugm-3
06-01-2012,11:00,,,
06-01-2012,12:00,76,R,ugm-3
06-01-2012,13:00,74,R,ugm-3
06-01-2012,14:00,72,R,ugm-3
06-01-2012,15:00,70,R,ugm-3
06-01-2012,16:00,70,R,ugm-3
06-01-2012,17:00,72,R,ugm-3
06-01-2012,18:00,72,R,ugm-3
06-01-2012,19:00,72,R,ugm-3
06-01-2012,20:00,74,R,ugm-3
06-01-2012,21:00,74,R,ugm-3
06-01-2012,22:00,80,R,ugm-3
06-01-2012,23:00,80,R,ugm-3
06-01-2012,24:00,78,R,ugm-3
07-01-2012,01:00,76,R,ugm-3
07-01-2012,02:00,74,R,ugm-3
07-01-2012,03:00,74,R,ugm-3
07-01-2012,04:00,72,R,ugm-3
07-01-2012,05:00,72,R,ugm-3
07-01-2012,06:00,72,R,ugm-3
07-01-2012,07:00,72,R,ugm-3
07-01-2012,08:00,72,R,ugm-3
07-01-2012,09:00,74,R,ugm-3
07-01-2012,10:00,74,R,ugm-3
07-01-2012,11:00,74,R,ugm-3
07-01-2012,12:00,72,R,ugm-3
07-01-2012,13:00,72,R,ugm-3
07-01-2012,14:00,72,R,ugm-3
07-01-2012,15:00,72,R,ugm-3
07-01-2012,16:00,74,R,ugm-3
07-01-2012,17:00,76,R,ugm-3
07-01-2012,18:00,76,R,ugm-3
07-01-2012,19:00,76,R,ugm-3
07-01-2012,20:00,78,R,ugm-3
07-01-2012,21:00,76,R,ugm-3
07-01-2012,22:00,74,R,ugm-3
07-01-2012,23:00,74,R,ugm-3
07-01-2012,24:00,74,R,ugm-3
08-01-2012,01:00,74,R,ugm-3
08-01-2012,02:00,72,R,ugm-3
08-01-2012,03:00,70,R,ugm-3
08-01-2012,04:00,70,R,ugm-3
08-01-2012,05:00,70,R,ugm-3
08-01-2012,06:00,72,R,ugm-3
08-01-2012,07:00,72,R,ugm-3
08-01-2012,08:00,72,R,ugm-3
08-01-2012,09:00,74,R,ugm-3
08-01-2012,10:00,72,R,ugm-3
08-01-2012,11:00,70,R,ugm-3
08-01-2012,12:00,70,R,ugm-3
08-01-2012,13:00,70,R,ugm-3
08-01-2012,14:00,72,R,ugm-3
08-01-2012,15:00,72,R,ugm-3
08-01-2012,16:00,72,R,ugm-3
08-01-2012,17:00,74,R,ugm-3
08-01-2012,18:00,74,R,ugm-3
08-01-2012,19:00,74,R,ugm-3
08-01-2012,20:00,74,R,ugm-3
08-01-2012,21:00,76,R,ugm-3
08-01-2012,22:00,76,R,ugm-3
08-01-2012,23:00,76,R,ugm-3
08-01-2012,24:00,76,R,ugm-3
09-01-2012,01:00,76,R,ugm-3
09-01-2012,02:00,76,R,ugm-3
09-01-2012,03:00,76,R,ugm-3
09-01-2012,04:00,76,R,ugm-3
09-01-2012,05:00,84,R,ugm-3
09-01-2012,06:00,82,R,ugm-3
09-01-2012,07:00,72,R,ugm-3
09-01-2012,08:00,74,R,ugm-3
09-01-2012,09:00,76,R,ugm-3
09-01-2012,10:00,74,R,ugm-3
09-01-2012,11:00,68,R,ugm-3
09-01-2012,12:00,72,R,ugm-3
09-01-2012,13:00,74,R,ugm-3
09-01-2012,14:00,74,R,ugm-3
09-01-2012,15:00,76,R,ugm-3
09-01-2012,16:00,76,R,ugm-3
09-01-2012,17:00,76,R,ugm-3
09-01-2012,18:00,76,R,ugm-3
09-01-2012,19:00,76,R,ugm-3
09-01-2012,20:00,76,R,ugm-3
09-01-2012,21:00,78,R,ugm-3
09-01-2012,22:00,78,R,ugm-3
09-01-2012,23:00,80,R,ugm-3
09-01-2012,24:00,80,R,ugm-3
10-01-2012,01:00,76,R,ugm-3
10-01-2012,02:00,74,R,ugm-3
10-01-2012,03:00,74,R,ugm-3
10-01-2012,04:00,72,R,ugm-3
10-01-2012,05:00,70,R,ugm-3
10-01-2012,06:00,72,R,ugm-3
10-01-2012,07:00,72,R,ugm-3
10-01-2012,08:00,72,R,ugm-3
10-01-2012,09:00,74,R,ugm-3
10-01-2012,10:00,72,R,ugm-3
10-01-2012,11:00,72,R,ugm-3
10-01-2012,12:00,72,R,ugm-3
10-01-2012,13:00,72,R,ugm-3
10-01-2012,14:00,72,R,ugm-3
10-01-2012,15:00,72,R,ugm-3
10-01-2012,16:00,72,R,ugm-3
10-01-2012,17:00,72,R,ugm-3
10-01-2012,18:00,72,R,ugm-3
10-01-2012,19:00,72,R,ugm-3
10-01-2012,20:00,72,R,ugm-3
10-01-2012,21:00,70,R,ugm-3
10-01-2012,22:00,70,R,ugm-3
10-01-2012,23:00,68,R,ugm-3
10-01-2012,24:00,68,R,ugm-3
11-01-2012,01:00,68,R,ugm-3
11-01-2012,02:00,68,R,ugm-3
11-01-2012,03:00,66,R,ugm-3
11-01-2012,04:00,68,R,ugm-3
11-01-2012,05:00,68,R,ugm-3
11-01-2012,06:00,68,R,ugm-3
11-01-2012,07:00,66,R,ugm-3
11-01-2012,08:00,72,R,ugm-3
11-01-2012,09:00,72,R,ugm-3
11-01-2012,10:00,70,R,ugm-3
11-01-2012,11:00,68,R,ugm-3
11-01-2012,12:00,68,R,ugm-3
11-01-2012,13:00,70,R,ugm-3
11-01-2012,14:00,70,R,ugm-3
11-01-2012,15:00,70,R,ugm-3
11-01-2012,16:00,72,R,ugm-3
11-01-2012,17:00,70,R,ugm-3
11-01-2012,18:00,70,R,ugm-3
11-01-2012,19:00,70,R,ugm-3
11-01-2012,20:00,70,R,ugm-3
11-01-2012,21:00,68,R,ugm-3
11-01-2012,22:00,68,R,ugm-3
11-01-2012,23:00,68,R,ugm-3
11-01-2012,24:00,68,R,ugm-3
12-01-2012,01:00,68,R,ugm-3
12-01-2012,02:00,68,R,ugm-3
12-01-2012,03:00,68,R,ugm-3
12-01-2012,04:00,68,R,ugm-3
12-01-2012,05:00,68,R,ugm-3
12-01-2012,06:00,70,R,ugm-3
12-01-2012,07:00,68,R,ugm-3
12-01-2012,08:00,76,R,ugm-3
12-01-2012,09:00,78,R,ugm-3
12-01-2012,10:00,72,R,ugm-3
12-01-2012,11:00,72,R,ugm-3
12-01-2012,12:00,72,R,ugm-3
12-01-2012,13:00,68,R,ugm-3
12-01-2012,14:00,70,R,ugm-3
12-01-2012,15:00,70,R,ugm-3
12-01-2012,16:00,74,R,ugm-3
12-01-2012,17:00,72,R,ugm-3
12-01-2012,18:00,72,R,ugm-3
12-01-2012,19:00,70,R,ugm-3
12-01-2012,20:00,66,R,ugm-3
12-01-2012,21:00,54,R,ugm-3
12-01-2012,22:00,60,R,ugm-3
12-01-2012,23:00,66,R,ugm-3
12-01-2012,24:00,68,R,ugm-3
13-01-2012,01:00,62,R,ugm-3
13-01-2012,02:00,60,R,ugm-3
13-01-2012,03:00,60,R,ugm-3
13-01-2012,04:00,60,R,ugm-3
13-01-2012,05:00,70,R,ugm-3
13-01-2012,06:00,66,R,ugm-3
13-01-2012,07:00,62,R,ugm-3
13-01-2012,08:00,60,R,ugm-3
13-01-2012,09:00,64,R,ugm-3
13-01-2012,10:00,66,R,ugm-3
13-01-2012,11:00,64,R,ugm-3
13-01-2012,12:00,66,R,ugm-3
13-01-2012,13:00,58,R,ugm-3
13-01-2012,14:00,52,R,ugm-3
13-01-2012,15:00,50,R,ugm-3
13-01-2012,16:00,44,R,ugm-3
13-01-2012,17:00,42,R,ugm-3
13-01-2012,18:00,48,R,ugm-3
13-01-2012,19:00,38,R,ugm-3
13-01-2012,20:00,42,R,ugm-3
13-01-2012,21:00,40,R,ugm-3
13-01-2012,22:00,42,R,ugm-3
13-01-2012,23:00,52,R,ugm-3
13-01-2012,24:00,56,R,ugm-3
14-01-2012,01:00,52,R,ugm-3
14-01-2012,02:00,54,R,ugm-3
14-01-2012,03:00,52,R,ugm-3
14-01-2012,04:00,50,R,ugm-3
14-01-2012,05:00,54,R,ugm-3
14-01-2012,06:00,56,R,ugm-3
14-01-2012,07:00,64,R,ugm-3
14-01-2012,08:00,62,R,ugm-3
14-01-2012,09:00,58,R,ugm-3
14-01-2012,10:00,58,R,ugm-3
14-01-2012,11:00,54,R,ugm-3
14-01-2012,12:00,52,R,ugm-3
14-01-2012,13:00,48,R,ugm-3
14-01-2012,14:00,50,R,ugm-3
14-01-2012,15:00,52,R,ugm-3
14-01-2012,16:00,50,R,ugm-3
14-01-2012,17:00,52,R,ugm-3
14-01-2012,18:00,52,R,ugm-3
14-01-2012,19:00,50,R,ugm-3
14-01-2012,20:00,52,R,ugm-3
14-01-2012,21:00,54,R,ugm-3
14-01-2012,22:00,54,R,ugm-3
14-01-2012,23:00,52,R,ugm-3
14-01-2012,24:00,56,R,ugm-3
15-01-2012,01:00,58,R,ugm-3
15-01-2012,02:00,60,R,ugm-3
15-01-2012,03:00,62,R,ugm-3
15-01-2012,04:00,62,R,ugm-3
15-01-2012,05:00,62,R,ugm-3
15-01-2012,06:00,58,R,ugm-3
15-01-2012,07:00,56,R,ugm-3
15-01-2012,08:00,56,R,ugm-3
15-01-2012,09:00,54,R,ugm-3
15-01-2012,10:00,54,R,ugm-3
15-01-2012,11:00,54,R,ugm-3
15-01-2012,12:00,56,R,ugm-3
15-01-2012,13:00,54,R,ugm-3
15-01-2012,14:00,54,R,ugm-3
15-01-2012,15:00,54,R,ugm-3
15-01-2012,16:00,54,R,ugm-3
15-01-2012,17:00,54,R,ugm-3
15-01-2012,18:00,50,R,ugm-3
15-01-2012,19:00,56,R,ugm-3
15-01-2012,20:00,54,R,ugm-3
15-01-2012,21:00,54,R,ugm-3
15-01-2012,22:00,52,R,ugm-3
15-01-2012,23:00,46,R,ugm-3
15-01-2012,24:00,48,R,ugm-3
16-01-2012,01:00,44,R,ugm-3
16-01-2012,02:00,48,R,ugm-3
16-01-2012,03:00,46,R,ugm-3
16-01-2012,04:00,44,R,ugm-3
16-01-2012,05:00,46,R,ugm-3
16-01-2012,06:00,46,R,ugm-3
16-01-2012,07:00,44,R,ugm-3
16-01-2012,08:00,46,R,ugm-3
16-01-2012,09:00,46,R,ugm-3
16-01-2012,10:00,46,R,ugm-3
16-01-2012,11:00,46,R,ugm-3
16-01-2012,12:00,48,R,ugm-3
16-01-2012,13:00,46,R,ugm-3
16-01-2012,14:00,44,R,ugm-3
16-01-2012,15:00,44,R,ugm-3
16-01-2012,16:00,44,R,ugm-3
16-01-2012,17:00,48,R,ugm-3
16-01-2012,18:00,62,R,ugm-3
16-01-2012,19:00,64,R,ugm-3
16-01-2012,20:00,58,R,ugm-3
16-01-2012,21:00,64,R,ugm-3
16-01-2012,22:00,64,R,ugm-3
16-01-2012,23:00,62,R,ugm-3
16-01-2012,24:00,64,R,ugm-3
17-01-2012,01:00,68,R,ugm-3
17-01-2012,02:00,66,R,ugm-3
17-01-2012,03:00,64,R,ugm-3
17-01-2012,04:00,66,R,ugm-3
17-01-2012,05:00,66,R,ugm-3
17-01-2012,06:00,66,R,ugm-3
17-01-2012,07:00,66,R,ugm-3
17-01-2012,08:00,66,R,ugm-3
17-01-2012,09:00,64,R,ugm-3
17-01-2012,10:00,66,R,ugm-3
17-01-2012,11:00,64,R,ugm-3
17-01-2012,12:00,64,R,ugm-3
17-01-2012,13:00,62,R,ugm-3
17-01-2012,14:00,62,R,ugm-3
17-01-2012,15:00,64,R,ugm-3
17-01-2012,16:00,64,R,ugm-3
17-01-2012,17:00,66,R,ugm-3
17-01-2012,18:00,68,R,ugm-3
17-01-2012,19:00,72,R,ugm-3
17-01-2012,20:00,72,R,ugm-3
17-01-2012,21:00,74,R,ugm-3
17-01-2012,22:00,74,R,ugm-3
17-01-2012,23:00,74,R,ugm-3
17-01-2012,24:00,72,R,ugm-3
18-01-2012,01:00,72,R,ugm-3
18-01-2012,02:00,72,R,ugm-3
18-01-2012,03:00,72,R,ugm-3
18-01-2012,04:00,72,R,ugm-3
18-01-2012,05:00,72,R,ugm-3
18-01-2012,06:00,76,R,ugm-3
18-01-2012,07:00,80,R,ugm-3
18-01-2012,08:00,80,R,ugm-3
18-01-2012,09:00,80,R,ugm-3
18-01-2012,10:00,80,R,ugm-3
18-01-2012,11:00,78,R,ugm-3
18-01-2012,12:00,78,R,ugm-3
18-01-2012,13:00,,,
18-01-2012,14:00,78,R,ugm-3
18-01-2012,15:00,78,R,ugm-3
18-01-2012,16:00,78,R,ugm-3
18-01-2012,17:00,78,R,ugm-3
18-01-2012,18:00,78,R,ugm-3
18-01-2012,19:00,78,R,ugm-3
18-01-2012,20:00,78,R,ugm-3
18-01-2012,21:00,78,R,ugm-3
18-01-2012,22:00,,,
18-01-2012,23:00,,,
18-01-2012,24:00,78,R,ugm-3
19-01-2012,01:00,78,R,ugm-3
19-01-2012,02:00,78,R,ugm-3
19-01-2012,03:00,78,R,ugm-3
19-01-2012,04:00,78,R,ugm-3
19-01-2012,05:00,78,R,ugm-3
19-01-2012,06:00,78,R,ugm-3
19-01-2012,07:00,80,R,ugm-3
19-01-2012,08:00,80,R,ugm-3
19-01-2012,09:00,80,R,ugm-3
19-01-2012,10:00,80,R,ugm-3
19-01-2012,11:00,78,R,ugm-3
19-01-2012,12:00,76,R,ugm-3
19-01-2012,13:00,76,R,ugm-3
19-01-2012,14:00,78,R,ugm-3
19-01-2012,15:00,78,R,ugm-3
19-01-2012,16:00,78,R,ugm-3
19-01-2012,17:00,78,R,ugm-3
19-01-2012,18:00,80,R,ugm-3
19-01-2012,19:00,80,R,ugm-3
19-01-2012,20:00,80,R,ugm-3
19-01-2012,21:00,80,R,ugm-3
19-01-2012,22:00,80,R,ugm-3
19-01-2012,23:00,78,R,ugm-3
19-01-2012,24:00,76,R,ugm-3
20-01-2012,01:00,74,R,ugm-3
20-01-2012,02:00,74,R,ugm-3
20-01-2012,03:00,74,R,ugm-3
20-01-2012,04:00,76,R,ugm-3
20-01-2012,05:00,76,R,ugm-3
20-01-2012,06:00,76,R,ugm-3
20-01-2012,07:00,76,R,ugm-3
20-01-2012,08:00,76,R,ugm-3
20-01-2012,09:00,76,R,ugm-3
20-01-2012,10:00,78,R,ugm-3
20-01-2012,11:00,78,R,ugm-3
20-01-2012,12:00,78,R,ugm-3
20-01-2012,13:00,76,R,ugm-3
20-01-2012,14:00,76,R,ugm-3
20-01-2012,15:00,72,R,ugm-3
20-01-2012,16:00,70,R,ugm-3
20-01-2012,17:00,68,R,ugm-3
20-01-2012,18:00,68,R,ugm-3
20-01-2012,19:00,70,R,ugm-3
20-01-2012,20:00,70,R,ugm-3
20-01-2012,21:00,72,R,ugm-3
20-01-2012,22:00,72,R,ugm-3
20-01-2012,23:00,74,R,ugm-3
20-01-2012,24:00,74,R,ugm-3
21-01-2012,01:00,76,R,ugm-3
21-01-2012,02:00,76,R,ugm-3
21-01-2012,03:00,76,R,ugm-3
21-01-2012,04:00,76,R,ugm-3
21-01-2012,05:00,76,R,ugm-3
21-01-2012,06:00,80,R,ugm-3
21-01-2012,07:00,84,R,ugm-3
21-01-2012,08:00,84,R,ugm-3
21-01-2012,09:00,80,R,ugm-3
21-01-2012,10:00,76,R,ugm-3
21-01-2012,11:00,72,R,ugm-3
21-01-2012,12:00,70,R,ugm-3
21-01-2012,13:00,74,R,ugm-3
21-01-2012,14:00,76,R,ugm-3
21-01-2012,15:00,76,R,ugm-3
21-01-2012,16:00,76,R,ugm-3
21-01-2012,17:00,78,R,ugm-3
21-01-2012,18:00,78,R,ugm-3
21-01-2012,19:00,78,R,ugm-3
21-01-2012,20:00,80,R,ugm-3
21-01-2012,21:00,78,R,ugm-3
21-01-2012,22:00,76,R,ugm-3
21-01-2012,23:00,76,R,ugm-3
21-01-2012,24:00,74,R,ugm-3
22-01-2012,01:00,74,R,ugm-3
22-01-2012,02:00,74,R,ugm-3
22-01-2012,03:00,78,R,ugm-3
22-01-2012,04:00,78,R,ugm-3
22-01-2012,05:00,82,R,ugm-3
22-01-2012,06:00,80,R,ugm-3
22-01-2012,07:00,78,R,ugm-3
22-01-2012,08:00,74,R,ugm-3
22-01-2012,09:00,76,R,ugm-3
22-01-2012,10:00,74,R,ugm-3
22-01-2012,11:00,76,R,ugm-3
22-01-2012,12:00,76,R,ugm-3
22-01-2012,13:00,76,R,ugm-3
22-01-2012,14:00,76,R,ugm-3
22-01-2012,15:00,78,R,ugm-3
22-01-2012,16:00,78,R,ugm-3
22-01-2012,17:00,78,R,ugm-3
22-01-2012,18:00,78,R,ugm-3
22-01-2012,19:00,80,R,ugm-3
22-01-2012,20:00,80,R,ugm-3
22-01-2012,21:00,80,R,ugm-3
22-01-2012,22:00,78,R,ugm-3
22-01-2012,23:00,78,R,ugm-3
22-01-2012,24:00,78,R,ugm-3
23-01-2012,01:00,78,R,ugm-3
23-01-2012,02:00,78,R,ugm-3
23-01-2012,03:00,78,R,ugm-3
23-01-2012,04:00,78,R,ugm-3
23-01-2012,05:00,78,R,ugm-3
23-01-2012,06:00,78,R,ugm-3
23-01-2012,07:00,78,R,ugm-3
23-01-2012,08:00,78,R,ugm-3
23-01-2012,09:00,78,R,ugm-3
23-01-2012,10:00,78,R,ugm-3
23-01-2012,11:00,76,R,ugm-3
23-01-2012,12:00,74,R,ugm-3
23-01-2012,13:00,74,R,ugm-3
23-01-2012,14:00,74,R,ugm-3
23-01-2012,15:00,76,R,ugm-3
23-01-2012,16:00,76,R,ugm-3
23-01-2012,17:00,76,R,ugm-3
23-01-2012,18:00,72,R,ugm-3
23-01-2012,19:00,70,R,ugm-3
23-01-2012,20:00,70,R,ugm-3
23-01-2012,21:00,72,R,ugm-3
23-01-2012,22:00,72,R,ugm-3
23-01-2012,23:00,74,R,ugm-3
23-01-2012,24:00,74,R,ugm-3
24-01-2012,01:00,74,R,ugm-3
24-01-2012,02:00,74,R,ugm-3
24-01-2012,03:00,74,R,ugm-3
24-01-2012,04:00,72,R,ugm-3
24-01-2012,05:00,72,R,ugm-3
24-01-2012,06:00,72,R,ugm-3
24-01-2012,07:00,72,R,ugm-3
24-01-2012,08:00,74,R,ugm-3
24-01-2012,09:00,74,R,ugm-3
24-01-2012,10:00,72,R,ugm-3
24-01-2012,11:00,72,R,ugm-3
24-01-2012,12:00,72,R,ugm-3
24-01-2012,13:00,70,R,ugm-3
24-01-2012,14:00,72,R,ugm-3
24-01-2012,15:00,72,R,ugm-3
24-01-2012,16:00,72,R,ugm-3
24-01-2012,17:00,74,R,ugm-3
24-01-2012,18:00,74,R,ugm-3
24-01-2012,19:00,74,R,ugm-3
24-01-2012,20:00,76,R,ugm-3
24-01-2012,21:00,78,R,ugm-3
24-01-2012,22:00,80,R,ugm-3
24-01-2012,23:00,80,R,ugm-3
24-01-2012,24:00,78,R,ugm-3
25-01-2012,01:00,76,R,ugm-3
25-01-2012,02:00,76,R,ugm-3
25-01-2012,03:00,76,R,ugm-3
25-01-2012,04:00,76,R,ugm-3
25-01-2012,05:00,76,R,ugm-3
25-01-2012,06:00,76,R,ugm-3
25-01-2012,07:00,74,R,ugm-3
25-01-2012,08:00,74,R,ugm-3
25-01-2012,09:00,76,R,ugm-3
25-01-2012,10:00,76,R,ugm-3
25-01-2012,11:00,80,R,ugm-3
25-01-2012,12:00,86,R,ugm-3
25-01-2012,13:00,80,R,ugm-3
25-01-2012,14:00,76,R,ugm-3
25-01-2012,15:00,78,R,ugm-3
25-01-2012,16:00,82,R,ugm-3
25-01-2012,17:00,84,R,ugm-3
25-01-2012,18:00,84,R,ugm-3
25-01-2012,19:00,80,R,ugm-3
25-01-2012,20:00,80,R,ugm-3
25-01-2012,21:00,76,R,ugm-3
25-01-2012,22:00,76,R,ugm-3
25-01-2012,23:00,74,R,ugm-3
25-01-2012,24:00,76,R,ugm-3
26-01-2012,01:00,80,R,ugm-3
26-01-2012,02:00,80,R,ugm-3
26-01-2012,03:00,80,R,ugm-3
26-01-2012,04:00,78,R,ugm-3
26-01-2012,05:00,78,R,ugm-3
26-01-2012,06:00,78,R,ugm-3
26-01-2012,07:00,80,R,ugm-3
26-01-2012,08:00,82,R,ugm-3
26-01-2012,09:00,80,R,ugm-3
26-01-2012,10:00,80,R,ugm-3
26-01-2012,11:00,80,R,ugm-3
26-01-2012,12:00,78,R,ugm-3
26-01-2012,13:00,76,R,ugm-3
26-01-2012,14:00,74,R,ugm-3
26-01-2012,15:00,74,R,ugm-3
26-01-2012,16:00,72,R,ugm-3
26-01-2012,17:00,70,R,ugm-3
26-01-2012,18:00,70,R,ugm-3
26-01-2012,19:00,70,R,ugm-3
26-01-2012,20:00,72,R,ugm-3
26-01-2012,21:00,70,R,ugm-3
26-01-2012,22:00,70,R,ugm-3
26-01-2012,23:00,70,R,ugm-3
26-01-2012,24:00,72,R,ugm-3
27-01-2012,01:00,72,R,ugm-3
27-01-2012,02:00,72,R,ugm-3
27-01-2012,03:00,74,R,ugm-3
27-01-2012,04:00,74,R,ugm-3
27-01-2012,05:00,76,R,ugm-3
27-01-2012,06:00,76,R,ugm-3
27-01-2012,07:00,76,R,ugm-3
27-01-2012,08:00,74,R,ugm-3
27-01-2012,09:00,74,R,ugm-3
27-01-2012,10:00,74,R,ugm-3
27-01-2012,11:00,76,R,ugm-3
27-01-2012,12:00,74,R,ugm-3
27-01-2012,13:00,76,R,ugm-3
27-01-2012,14:00,74,R,ugm-3
27-01-2012,15:00,76,R,ugm-3
27-01-2012,16:00,76,R,ugm-3
27-01-2012,17:00,74,R,ugm-3
27-01-2012,18:00,72,R,ugm-3
27-01-2012,19:00,72,R,ugm-3
27-01-2012,20:00,72,R,ugm-3
27-01-2012,21:00,70,R,ugm-3
27-01-2012,22:00,60,R,ugm-3
27-01-2012,23:00,66,R,ugm-3
27-01-2012,24:00,66,R,ugm-3
28-01-2012,01:00,58,R,ugm-3
28-01-2012,02:00,66,R,ugm-3
28-01-2012,03:00,72,R,ugm-3
28-01-2012,04:00,70,R,ugm-3
28-01-2012,05:00,70,R,ugm-3
28-01-2012,06:00,72,R,ugm-3
28-01-2012,07:00,72,R,ugm-3
28-01-2012,08:00,72,R,ugm-3
28-01-2012,09:00,74,R,ugm-3
28-01-2012,10:00,72,R,ugm-3
28-01-2012,11:00,74,R,ugm-3
28-01-2012,12:00,72,R,ugm-3
28-01-2012,13:00,66,R,ugm-3
28-01-2012,14:00,66,R,ugm-3
28-01-2012,15:00,66,R,ugm-3
28-01-2012,16:00,66,R,ugm-3
28-01-2012,17:00,68,R,ugm-3
28-01-2012,18:00,70,R,ugm-3
28-01-2012,19:00,76,R,ugm-3
28-01-2012,20:00,76,R,ugm-3
28-01-2012,21:00,76,R,ugm-3
28-01-2012,22:00,76,R,ugm-3
28-01-2012,23:00,76,R,ugm-3
28-01-2012,24:00,76,R,ugm-3
29-01-2012,01:00,74,R,ugm-3
29-01-2012,02:00,74,R,ugm-3
29-01-2012,03:00,72,R,ugm-3
29-01-2012,04:00,72,R,ugm-3
29-01-2012,05:00,72,R,ugm-3
29-01-2012,06:00,72,R,ugm-3
29-01-2012,07:00,72,R,ugm-3
29-01-2012,08:00,72,R,ugm-3
29-01-2012,09:00,72,R,ugm-3
29-01-2012,10:00,70,R,ugm-3
29-01-2012,11:00,72,R,ugm-3
29-01-2012,12:00,72,R,ugm-3
29-01-2012,13:00,74,R,ugm-3
29-01-2012,14:00,76,R,ugm-3
29-01-2012,15:00,74,R,ugm-3
29-01-2012,16:00,74,R,ugm-3
29-01-2012,17:00,76,R,ugm-3
29-01-2012,18:00,74,R,ugm-3
29-01-2012,19:00,74,R,ugm-3
29-01-2012,20:00,74,R,ugm-3
29-01-2012,21:00,72,R,ugm-3
29-01-2012,22:00,72,R,ugm-3
29-01-2012,23:00,70,R,ugm-3
29-01-2012,24:00,72,R,ugm-3
30-01-2012,01:00,62,R,ugm-3
30-01-2012,02:00,60,R,ugm-3
30-01-2012,03:00,64,R,ugm-3
30-01-2012,04:00,58,R,ugm-3
30-01-2012,05:00,56,R,ugm-3
30-01-2012,06:00,66,R,ugm-3
30-01-2012,07:00,66,R,ugm-3
30-01-2012,08:00,64,R,ugm-3
30-01-2012,09:00,62,R,ugm-3
30-01-2012,10:00,54,R,ugm-3
30-01-2012,11:00,48,R,ugm-3
30-01-2012,12:00,40,R,ugm-3
30-01-2012,13:00,36,R,ugm-3
30-01-2012,14:00,38,R,ugm-3
30-01-2012,15:00,38,R,ugm-3
30-01-2012,16:00,38,R,ugm-3
30-01-2012,17:00,38,R,ugm-3
30-01-2012,18:00,40,R,ugm-3
30-01-2012,19:00,40,R,ugm-3
30-01-2012,20:00,38,R,ugm-3
30-01-2012,21:00,40,R,ugm-3
30-01-2012,22:00,40,R,ugm-3
30-01-2012,23:00,36,R,ugm-3
30-01-2012,24:00,34,R,ugm-3
31-01-2012,01:00,34,R,ugm-3
31-01-2012,02:00,36,R,ugm-3
31-01-2012,03:00,34,R,ugm-3
31-01-2012,04:00,36,R,ugm-3
31-01-2012,05:00,36,R,ugm-3
31-01-2012,06:00,36,R,ugm-3
31-01-2012,07:00,34,R,ugm-3
31-01-2012,08:00,34,R,ugm-3
31-01-2012,09:00,32,R,ugm-3
31-01-2012,10:00,30,R,ugm-3
31-01-2012,11:00,28,R,ugm-3
31-01-2012,12:00,28,R,ugm-3
31-01-2012,13:00,30,R,ugm-3
31-01-2012,14:00,32,R,ugm-3
31-01-2012,15:00,36,R,ugm-3
31-01-2012,16:00,40,R,ugm-3
31-01-2012,17:00,40,R,ugm-3
31-01-2012,18:00,38,R,ugm-3
31-01-2012,19:00,42,R,ugm-3
31-01-2012,20:00,40,R,ugm-3
31-01-2012,21:00,32,R,ugm-3
31-01-2012,22:00,36,R,ugm-3
31-01-2012,23:00,36,R,ugm-3
31-01-2012,24:00,38,R,ugm-3
01-02-2012,01:00,34,R,ugm-3
01-02-2012,02:00,32,R,ugm-3
01-02-2012,03:00,28,R,ugm-3
01-02-2012,04:00,26,R,ugm-3
01-02-2012,05:00,24,R,ugm-3
01-02-2012,06:00,26,R,ugm-3
01-02-2012,07:00,34,R,ugm-3
01-02-2012,08:00,42,R,ugm-3
01-02-2012,09:00,44,R,ugm-3
01-02-2012,10:00,40,R,ugm-3
01-02-2012,11:00,48,R,ugm-3
01-02-2012,12:00,56,R,ugm-3
01-02-2012,13:00,58,R,ugm-3
01-02-2012,14:00,60,R,ugm-3
01-02-2012,15:00,62,R,ugm-3
01-02-2012,16:00,64,R,ugm-3
01-02-2012,17:00,66,R,ugm-3
01-02-2012,18:00,64,R,ugm-3
01-02-2012,19:00,50,R,ugm-3
01-02-2012,20:00,48,R,ugm-3
01-02-2012,21:00,44,R,ugm-3
01-02-2012,22:00,48,R,ugm-3
01-02-2012,23:00,64,R,ugm-3
01-02-2012,24:00,64,R,ugm-3
02-02-2012,01:00,62,R,ugm-3
02-02-2012,02:00,48,R,ugm-3
02-02-2012,03:00,52,R,ugm-3
02-02-2012,04:00,50,R,ugm-3
02-02-2012,05:00,54,R,ugm-3
02-02-2012,06:00,60,R,ugm-3
02-02-2012,07:00,58,R,ugm-3
02-02-2012,08:00,58,R,ugm-3
02-02-2012,09:00,58,R,ugm-3
02-02-2012,10:00,58,R,ugm-3
02-02-2012,11:00,62,R,ugm-3
02-02-2012,12:00,64,R,ugm-3
02-02-2012,13:00,66,R,ugm-3
02-02-2012,14:00,66,R,ugm-3
02-02-2012,15:00,66,R,ugm-3
02-02-2012,16:00,68,R,ugm-3
02-02-2012,17:00,70,R,ugm-3
02-02-2012,18:00,62,R,ugm-3
02-02-2012,19:00,64,R,ugm-3
02-02-2012,20:00,68,R,ugm-3
02-02-2012,21:00,66,R,ugm-3
02-02-2012,22:00,66,R,ugm-3
02-02-2012,23:00,70,R,ugm-3
02-02-2012,24:00,72,R,ugm-3
03-02-2012,01:00,72,R,ugm-3
03-02-2012,02:00,74,R,ugm-3
03-02-2012,03:00,74,R,ugm-3
03-02-2012,04:00,74,R,ugm-3
03-02-2012,05:00,72,R,ugm-3
03-02-2012,06:00,72,R,ugm-3
03-02-2012,07:00,72,R,ugm-3
03-02-2012,08:00,70,R,ugm-3
03-02-2012,09:00,68,R,ugm-3
03-02-2012,10:00,70,R,ugm-3
03-02-2012,11:00,70,R,ugm-3
03-02-2012,12:00,68,R,ugm-3
03-02-2012,13:00,64,R,ugm-3
03-02-2012,14:00,66,R,ugm-3
03-02-2012,15:00,70,R,ugm-3
03-02-2012,16:00,76,R,ugm-3
03-02-2012,17:00,76,R,ugm-3
03-02-2012,18:00,72,R,ugm-3
03-02-2012,19:00,76,R,ugm-3
03-02-2012,20:00,74,R,ugm-3
03-02-2012,21:00,70,R,ugm-3
03-02-2012,22:00,70,R,ugm-3
03-02-2012,23:00,70,R,ugm-3
03-02-2012,24:00,72,R,ugm-3
04-02-2012,01:00,78,R,ugm-3
04-02-2012,02:00,78,R,ugm-3
04-02-2012,03:00,78,R,ugm-3
04-02-2012,04:00,78,R,ugm-3
04-02-2012,05:00,76,R,ugm-3
04-02-2012,06:00,76,R,ugm-3
04-02-2012,07:00,76,R,ugm-3
04-02-2012,08:00,78,R,ugm-3
04-02-2012,09:00,78,R,ugm-3
04-02-2012,10:00,78,R,ugm-3
04-02-2012,11:00,78,R,ugm-3
04-02-2012,12:00,76,R,ugm-3
04-02-2012,13:00,80,R,ugm-3
04-02-2012,14:00,76,R,ugm-3
04-02-2012,15:00,72,R,ugm-3
04-02-2012,16:00,76,R,ugm-3
04-02-2012,17:00,74,R,ugm-3
04-02-2012,18:00,78,R,ugm-3
04-02-2012,19:00,76,R,ugm-3
04-02-2012,20:00,74,R,ugm-3
04-02-2012,21:00,72,R,ugm-3
04-02-2012,22:00,74,R,ugm-3
04-02-2012,23:00,70,R,ugm-3
04-02-2012,24:00,74,R,ugm-3
05-02-2012,01:00,76,R,ugm-3
05-02-2012,02:00,76,R,ugm-3
05-02-2012,03:00,78,R,ugm-3
05-02-2012,04:00,78,R,ugm-3
05-02-2012,05:00,78,R,ugm-3
05-02-2012,06:00,76,R,ugm-3
05-02-2012,07:00,76,R,ugm-3
05-02-2012,08:00,76,R,ugm-3
05-02-2012,09:00,76,R,ugm-3
05-02-2012,10:00,76,R,ugm-3
05-02-2012,11:00,80,R,ugm-3
05-02-2012,12:00,78,R,ugm-3